User: anonymous   Login
Location: Rancho Del Sol Observatory
(38.7214°N, 120.6350°W)
Time: 14:10:12
(UTC-08:00)
Language:

Courier 1B - Orbit

View from above orbital plane
View from above orbital plane
View from above satellite
View from above satellite

Ground track
Ground track

The orbit data is extracted from the following two-line orbital elements,

1    58U 60013A   20018.60430587 +.00000094 +00000-0 +10077-4 0  9999
2    58 028.3277 139.9230 0165032 260.4101 097.7761 13.46320596918275
Epoch (UTC): 18 January 2020 14:30:12
Eccentricity: 0.0165032
inclination: 28.3277°
perigee height: 962 km
apogee height: 1209 km
right ascension of ascending node: 139.9230°
argument of perigee: 260.4101°
revolutions per day: 13.46320596
mean anomaly at epoch: 97.7761°
orbit number at epoch: 91827

The dashed part of the orbit path shows where the satellite is in the earth's shadow,  

DLR